Location: Unspecified
(52.1971°N, 0.0000°E)
Time: 13:42:20
(UTC+00:00)

Envisat - Visible Passes

Search period start: 17 October 2019 00:00
Search period end: 27 October 2019 00:00
Orbit: 764 x 766 km, 98.1° (Epoch: 17 October)

Date Brightness Start Highest point End Pass type
(mag) Time Alt. Az. Time Alt. Az. Time Alt. Az.
17 Oct 3.0 17:44:36 10° SSE 17:49:41 81° ENE 17:54:48 10° NNW visible
17 Oct 5.8 19:26:01 10° SW 19:29:22 17° W 19:32:44 10° NW visible
18 Oct 6.0 05:48:33 10° NE 05:52:09 19° E 05:55:43 10° SE visible
18 Oct 4.8 18:47:37 10° SSW 18:52:11 33° W 18:56:48 10° NNW visible
19 Oct 3.5 18:10:11 10° S 18:15:13 64° WSW 18:20:18 10° NNW visible
19 Oct 6.3 19:54:16 10° W 19:55:17 11° W 19:56:17 10° WNW visible
20 Oct 3.0 17:33:25 10° SSE 17:38:26 67° ENE 17:43:31 10° N visible
20 Oct 5.6 19:14:08 10° SW 19:17:57 21° W 19:21:48 10° NW visible
21 Oct 6.2 05:37:42 10° NE 05:40:44 16° E 05:43:44 10° ESE visible
21 Oct 4.4 18:36:05 10° SSW 18:40:50 40° W 18:45:39 10° NNW visible
22 Oct 3.2 17:58:51 10° S 18:03:56 78° WSW 18:09:03 10° NNW visible
22 Oct 6.1 19:41:27 10° WSW 19:43:49 13° W 19:46:13 10° NW visible
23 Oct 5.7 06:02:24 10° NE 06:06:34 25° E 06:10:42 10° SE visible
23 Oct 3.1 17:22:15 10° SE 17:27:12 56° ENE 17:32:12 10° N visible
23 Oct 5.2 19:02:22 10° SSW 19:06:34 26° W 19:10:47 10° NW visible
24 Oct 6.4 05:27:04 10° ENE 05:29:17 13° E 05:31:30 10° ESE visible
24 Oct 4.0 18:24:36 10° S 18:29:31 49° W 18:34:28 10° NNW visible
25 Oct 3.0 17:47:34 10° SSE 17:52:40 87° ENE 17:57:47 10° NNW visible
25 Oct 5.9 19:29:16 10° SW 19:32:24 16° W 19:35:32 10° NW visible
26 Oct 6.0 05:51:23 10° NE 05:55:10 20° E 05:58:56 10° SE visible
26 Oct 3.3 17:11:09 10° SE 17:16:00 46° ENE 17:20:51 10° N visible
26 Oct 4.9 18:50:43 10° SSW 18:55:12 31° W 18:59:43 10° NNW visible
